COSMOS 2251 DEB, 36614

Orbit data source: Space-Track

COSMOS 2251 DEB, 36614 is space debris in LEO originally from a launch on Wed, 16 Jun 1993 UTC launched from the Plesetsk Missile And Space Complex (PKMTR). The debris from Iridium 33, an American commercial communications satellite, has been tracked extensively since its accidental collision with the defunct Russian satellite Cosmos 2251 in 2009. This event, occurring at high speed in low Earth orbit (LEO), generated thousands of pieces of space debris, significantly increasing the risk of further collisions. The Iridium 33 debris cloud has impacted space traffic management and orbital debris mitigation strategies, making it a subject of ongoing study in space situational awareness.

Loading next visibility...
Identifier
36614, 1993-036BEC
Orbit
LEO
Country
Flag of CISCIS
Related business
Manufacturer
Unknown
Mission
Spacecraft
Bus & Motor
Unknown
Mass
Unknown
Launch date (UTC)
1993-06-16 (32 years ago)
Launch vehicle
Unknown
Launch site
Plesetsk Missile And Space Complex (PKMTR)
Object type
Payload
Rocket body
Debris
Shape & HBR
Unknown shape, 0.1 m
Radar Cross Section
Small (<0.1 m²)

Expand to show TLE details & history
Last TLE update: 2 days ago

TLE from 2 days ago
0 COSMOS 2251 DEB
1 36614U 93036BEC 25298.19077355  .00009907  00000-0  20931-2 0  9996
2 36614  74.0228 267.2717 0017515 340.4097  19.6393 14.59340384649048
Epoch: 2025-10-25T04:34Z
TLE epoch observation values (Epoch: 2025-10-25T04:34:42.834Z)
Latitude
-0.00004°
Longitude
164.76834°
Altitude
686.275 km
Speed
7.52 km/s
True Right ascension
17h 49m 05s
True Declination
0° 00' 00"
Sunlit
Object was in daylight at epoch
Visualization orbit readout
Latitude
Unknown
Longitude
Unknown
Altitude
Unknown
Speed
Unknown
Apparent Right ascension
Unknown
Apparent Declination
Unknown
Sunlit
N/A
Visualization observer readout
Local Sidereal Time
08:26:54
Azimuth
Unknown
Elevation
Unknown
Doppler factor
Unknown
Orbital elements
Apogee altitude
705.289 km
Perigee altitude
680.519 km
Semi-major axis
7,071.041 km
Eccentricity
0.00175
Inclination
74.0228°
RAAN
267.2717°
Arg. of periapsis
340.4097°
True anomaly
19.7069°
Mean anomaly
19.6393°
Eccentric anomaly
19.67308°
Mean motion
3.65021 °/min
Orbital period
98.62 mins
BSTAR
0.0020931
Loading maneuver chart data...
Computing Atmospheric mass density...

Documentation

Showing up to 5 results
|